[Iaude] MPEC S103: 2023 SV1 [a=1.62,e=0.63,i=6.6,H=24.0]
    mpec at marsden.cfa.harvard.edu 
    mpec at marsden.cfa.harvard.edu
       
    Tue Sep 19 23:04:56 EDT 2023
    
    
  
M.P.E.C. 2023-S103                           Issued 2023 September 20, 03:03 UT
     The Minor Planet Electronic Circulars contain information on unusual
         minor planets, routine data on comets and natural satellites,
         and occasional editorial announcements.  They are published
    on behalf of Division F of the International Astronomical Union by the
          Minor Planet Center, Smithsonian Astrophysical Observatory,
                          Cambridge, MA 02138, U.S.A.
			  
             Prepared using the Tamkin Foundation Computer Network
                              MPC at CFA.HARVARD.EDU
            URL https://www.minorplanetcenter.net/    ISSN 1523-6714
                                    2023 SV1                                    
Observations:
     K23S01V* C2023 09 18.42099500 20 42.844-25 54 16.25         18.91wXES103F51
     K23S01V  C2023 09 18.43190600 20 35.943-25 52 49.39         19.12wXES103F51
     K23S01V  C2023 09 18.44281800 20 29.042-25 51 22.43         19.44wXES103F51
     K23S01V  C2023 09 18.53188200 19 34.322-25 39 38.08         18.92GVES103F51
     K23S01V  C2023 09 18.53269500 19 33.829-25 39 31.57         18.80GVES103F51
     K23S01V KC2023 09 18.82914 00 17 14.22 -25 01 23.8                VES103M21
     K23S01V KC2023 09 18.84727 00 17 04.77 -24 59 22.3          18.9 GVES103M21
     K23S01V mC2023 09 19.25976600 13 57.558-24 16 39.94         19.43GVES103I52
     K23S01V mC2023 09 19.26225600 13 56.420-24 16 25.32         18.82GVES103I52
     K23S01V mC2023 09 19.26474200 13 55.276-24 16 10.49         19.28GVES103I52
     K23S01V mC2023 09 19.26724200 13 54.113-24 15 55.55         19.30GVES103I52
     K23S01V KC2023 09 19.45313 00 12 40.17 -23 55 17.9          19.0 RqES103E94
     K23S01V KC2023 09 19.46328 00 12 35.80 -23 54 20.8          18.9 RqES103E94
     K23S01V KC2023 09 19.47343 00 12 31.48 -23 53 23.3          19.1 RqES103E94
     K23S01V KC2023 09 19.50175 00 12 22.73 -23 50 49.0          18.8 VqES103E23
     K23S01V KC2023 09 19.51564 00 12 16.90 -23 49 31.7          19.2 VqES103E23
     K23S01V KC2023 09 19.52953 00 12 11.04 -23 48 16.0          19.5 VqES103E23
     K23S01V  C2023 09 19.78737 00 10 41.28 -23 24 47.6          19.3 GVES103M28
     K23S01V  C2023 09 19.78963 00 10 40.50 -23 24 36.2          19.5 GVES103M28
     K23S01V KB2023 09 19.94184500 09 44.273-23 14 09.64         19.5 GXES103K74
     K23S01V KB2023 09 19.95586100 09 39.206-23 12 59.29         20.1 GXES103K74
     K23S01V KB2023 09 20.01295200 09 19.75 -23 08 13.7                XES103958
     K23S01V KB2023 09 20.01865700 09 17.65 -23 07 45.0                XES103958
     K23S01V KB2023 09 20.02427000 09 15.71 -23 07 17.9          19.6 GXES103958
     K23S01V KB2023 09 20.05072500 09 06.20 -23 05 09.1          19.7 GVES103I93
     K23S01V KB2023 09 20.05643000 09 04.22 -23 04 41.1          19.7 GVES103I93
     K23S01V KB2023 09 20.06195400 09 02.28 -23 04 14.1          19.3 GVES103I93
Observer details:
958 Observatoire de Dax.  Observer P. Dupouy.  0.50-m f/4.5 Reflector + CMO.
E23 Arcadia.  Observer A. Hidas.  0.35-m f/1.9 reflector + CCD.
E94 Possum Observatory, Gisborne.  Observer J. Drummond.  0.41-m f/4.5
    Newtonian + CCD.
F51 Pan-STARRS 1, Haleakala.  Observers J. Bulger, T. Lowe, P. Minguez, A.
    Schultz, I. Smith, K. Chambers.  Measurers K. Chambers, T. de Boer, J.
    Bulger, J. Fairlamb, H. Gao, M. Huber, C.-C. Lin, T. Lowe, E. Magnier, P.
    Minguez, Y. Ramanjooloo, A. Schultz, I. Smith, R. Wainscoat, R. Weryk, S.
    Chastel.  1.8-m Ritchey-Chretien + CCD.
I52 Steward Observatory, Mt. Lemmon Station.  Observer K. W. Wierzchos.
    Measurers E. J. Christensen, D. Fay, J. B. Fazekas, D. C. Fuls, A. R.
    Gibbs, A. D. Grauer, H. Groeller, J. K. Hogan, R. A. Kowalski, S. M.
    Larson, G. J. Leonard, D. Rankin, R. L. Seaman, A. Serrano, F. C. Shelly,
    K. W. Wierzchos.  1.0-m prime focus + CCD.
I93 St Pardon de Conques.  Observer F. Losse.  0.40-m f/3.7 reflector + CMO.
K74 Muensterschwarzach Observatory, Schwarzach.  Observer C. Gerhard.  0.30-m
    f/3.75 reflector + CMO.
M21 Schiaparelli Southern Observatory, Hakos.  Observers A. Aletti, F.
    Bellini, L. Buzzi, G. Galli.  Measurer L. Buzzi.  0.36-m f/8.4 reflector +
    CCD.
M28 Lesedi Telescope-SAAO Observatory, Sutherland.  Observers N. Erasmus, S.
    Potter, C. van Gend, S. Chandra, H. Worters.  Measurers T. Ngwane, N.
    Erasmus.  1.0-m f/8 Reflector + CCD.
Orbital elements:
2023 SV1                                                 Earth MOID = 0.0058 AU
Epoch 2023 Sept. 13.0 TT = JDT 2460200.5                Veres                   
M  23.85793              (2000.0)            P               Q                  
n   0.47804351     Peri.   94.82897     -0.21226944     +0.97662794             
a   1.6199108      Node   162.80266     -0.93573179     -0.19318028             
e   0.6318886      Incl.    6.55604     -0.28168723     -0.09422980             
P   2.06           H   24.08          G   0.15           U   9                  
Residuals in seconds of arc
230918 F51  0.2+  0.0     230919 I52  0.1+  0.0     230919 M28  0.5-  0.6+
230918 F51  0.0   0.3+    230919 I52  0.0   0.0     230919 K74  0.2-  0.3-
230918 F51  0.4-  0.6+    230919 E94  0.5+  0.6+    230919 K74  0.1-  0.6+
230918 F51  0.3+  0.1-    230919 E94  0.2+  0.5+    230920 958  0.4-  0.0
230918 F51  0.2+  0.0     230919 E94  0.5+  0.9+    230920 958  1.0-  0.7+
230918 M21  0.0   0.0     230919 E23  0.0   0.2-    230920 958  0.0   0.3+
230918 M21  0.1+  0.1+    230919 E23  0.2+  0.6+    230920 I93  0.0   0.1-
230919 I52  0.0   0.4+    230919 E23  0.0   0.2-    230920 I93  0.5+  0.1-
230919 I52  0.1+  0.1+    230919 M28  1.2-  0.5+    230920 I93  0.7+  0.2-
Ephemeris:
2023 SV1                 a,e,i = 1.62, 0.63, 7                   q = 0.5963
Date    TT    R. A. (2000) Decl.     Delta      r    Elong.  Phase     V
2023 08 21    11 22 37.9 +11 20 57   0.2838  0.7529    20.6   151.7    29.5
...
2023 09 05    11 11 29.6 +06 49 33   0.09815 0.9106     4.6   174.9
...
2023 09 13    08 07 55.6 -39 02 21   0.01689 0.9986    62.1   117.1    19.8
...
2023 09 19    00 15 47.2 -24 42 27   0.06502 1.0645   155.8    22.8    19.4
2023 09 20    00 09 24.2 -23 07 36   0.07617 1.0754   157.6    20.8    19.7
2023 09 21    00 04 44.6 -21 55 37   0.08743 1.0862   158.8    19.5    20.0
...
2023 09 27    23 51 33.8 -18 10 21   0.1567  1.1509   159.9    17.5    21.3
...
2023 10 05    23 46 18.7 -15 59 26   0.2532  1.2351   155.5    19.6    22.5
...
2023 10 20    23 46 35.7 -13 26 17   0.4503  1.3859   144.0    25.0    24.2
M. P. C. Staff               (C) Copyright 2023 MPC           M.P.E.C. 2023-S103
    
    
More information about the Iaude
mailing list